sat.trackr.live / text

‹ back to catalog

JILIN GAOFEN OBJECT F

NORAD 68696 · 2026-080F

PAYLOAD ACTIVE UNKNOWN

§ Identity

Operator
Country
PRC
Launch date
2026-04-14
Launch site
JSC
Launch vehicle
Mass (kg)
RCS (m²)

External: N2YO · Heavens-Above · Gunter

§ Orbital elements

Epoch: 2026-05-25T04:13:32.916288Z

Period
95.38 min
Inclination
97.6612°
Eccentricity
0.0016245
Mean motion
15.09795593 rev/d
Perigee alt
525.6 km
Apogee alt
548.1 km
Semi-major
6,915.0 km
B*
3.0568e-4
RAAN
220.8011°
Arg perigee
140.3469°
Mean anomaly
219.8951°
Rev number
615

§ Raw data

JILIN GAOFEN OBJECT F1 68696U 26080F   26145.17607542  .00004888  00000+0  30568-3 0  99932 68696  97.6612 220.8011 0016245 140.3469 219.8951 15.09795593  6157

JSON: /api/v1/satellites/68696 · /tle

For live sub-satellite position, see the globe view (requires WebGL).

§ Visibility from observer

Set your observer location to see the next 7 days of passes ≥ 10°. The values pass through the URL so the page stays shareable.

No JS? Fill the form by hand. The geolocation button needs JavaScript.